User: anonymous   Login
Location: Mentone
(34.5413°N, 85.5351°W)
Time: 02:02:56
(UTC-05:00)
Language:

ERBS - Orbit

View from above orbital plane
View from above orbital plane
View from above satellite
View from above satellite

Ground track
Ground track

The orbit data is extracted from the following two-line orbital elements,

1 15354U 84108B   16269.17413197  .00003669  00000-0  94982-4 0  9996
2 15354  57.0086 197.7724 0009252 351.4007   8.6887 15.41645833757300
Epoch (UTC): 25 September 2016 04:10:45
Eccentricity: 0.0009252
inclination: 57.0086°
perigee height: 435 km
apogee height: 447 km
right ascension of ascending node: 197.7724°
argument of perigee: 351.4007°
revolutions per day: 15.41645833
mean anomaly at epoch: 8.6887°
orbit number at epoch: 75730

The dashed part of the orbit path shows where the satellite is in the earth's shadow,  

DLR